AAL2407 KMSY-KDFW

Flight info

Callsign AAL2407
Flight time 1h 12m
Altitude 30000
Route AEX PNUTS BEREE3
Aircraft A320/M-SDE3FGHIRWY/LB1

Departure

Time 2026-05-03 21:41
Airport Louis Armstrong New Orleans International Airport (KMSY)

Arrival

Time 2026-05-03 22:54
Airport Dallas Fort Worth International Airport (KDFW)
Time Latitude Longitude Altitude Speed Heading
2026-05-03 21:10 29.99604 -90.25986 8 ft 0 kts 27°
2026-05-03 21:31 29.99602 -90.25987 7 ft 3 kts 27°
2026-05-03 21:31 29.99578 -90.26000 7 ft 4 kts 22°
2026-05-03 21:31 29.99553 -90.26011 10 ft 4 kts 15°
2026-05-03 21:31 29.99526 -90.26017 7 ft 4 kts
2026-05-03 21:32 29.99503 -90.26011 7 ft 4 kts 310°
2026-05-03 21:32 29.99498 -90.26005 7 ft 1 kts 287°
2026-05-03 21:34 29.99499 -90.26007 7 ft 1 kts 287°
2026-05-03 21:34 29.99505 -90.26025 6 ft 4 kts 291°
2026-05-03 21:34 29.99515 -90.26063 6 ft 6 kts 285°
2026-05-03 21:34 29.99528 -90.26118 7 ft 8 kts 281°
2026-05-03 21:35 29.99505 -90.26174 6 ft 9 kts 209°
2026-05-03 21:35 29.99447 -90.26204 7 ft 9 kts 220°
2026-05-03 21:35 29.99434 -90.26276 7 ft 10 kts 278°
2026-05-03 21:35 29.99451 -90.26355 8 ft 10 kts 277°
2026-05-03 21:36 29.99421 -90.26429 8 ft 11 kts 217°
2026-05-03 21:36 29.99348 -90.26457 8 ft 11 kts 195°
2026-05-03 21:36 29.99277 -90.26480 8 ft 12 kts 195°
2026-05-03 21:36 29.99191 -90.26507 8 ft 14 kts 195°
2026-05-03 21:37 29.99159 -90.26604 6 ft 16 kts 286°
2026-05-03 21:37 29.99190 -90.26730 8 ft 16 kts 286°
2026-05-03 21:37 29.99220 -90.26857 9 ft 16 kts 285°
2026-05-03 21:37 29.99251 -90.26986 10 ft 18 kts 285°
2026-05-03 21:38 29.99287 -90.27136 7 ft 20 kts 284°
2026-05-03 21:38 29.99327 -90.27297 5 ft 22 kts 285°
2026-05-03 21:38 29.99371 -90.27481 2 ft 23 kts 284°
2026-05-03 21:38 29.99399 -90.27598 3 ft 12 kts 285°
2026-05-03 21:39 29.99423 -90.27697 4 ft 14 kts 286°
2026-05-03 21:39 29.99452 -90.27811 3 ft 16 kts 285°
2026-05-03 21:39 29.99482 -90.27941 6 ft 17 kts 285°
2026-05-03 21:39 29.99513 -90.28071 6 ft 17 kts 286°
2026-05-03 21:40 29.99565 -90.28178 7 ft 15 kts 340°
2026-05-03 21:40 29.99642 -90.28163 7 ft 8 kts 15°
2026-05-03 21:40 29.99654 -90.28133 6 ft 3 kts 99°
2026-05-03 21:40 29.99652 -90.28128 6 ft 0 kts 105°
2026-05-03 21:41 29.99625 -90.28015 6 ft 47 kts 105°
2026-05-03 21:41 29.99466 -90.27361 3 ft 118 kts 105°
2026-05-03 21:41 29.99193 -90.26231 17 ft 171 kts 105°
2026-05-03 21:41 29.98878 -90.24926 655 ft 168 kts 105°
2026-05-03 21:42 29.98568 -90.23631 1370 ft 168 kts 104°
2026-05-03 21:42 29.98253 -90.22313 1934 ft 178 kts 104°
2026-05-03 21:42 29.97914 -90.20857 2295 ft 197 kts 99°
2026-05-03 21:42 29.97979 -90.19231 2633 ft 216 kts 64°
2026-05-03 21:43 29.98978 -90.17875 3002 ft 237 kts 27°
2026-05-03 21:43 30.00607 -90.17522 3520 ft 254 kts 350°
2026-05-03 21:43 30.02227 -90.18376 4335 ft 262 kts 323°
2026-05-03 21:43 30.03460 -90.19943 5232 ft 268 kts 305°
2026-05-03 21:44 30.04484 -90.21750 6160 ft 270 kts 304°
2026-05-03 21:44 30.05496 -90.23585 7050 ft 272 kts 303°
2026-05-03 21:44 30.06508 -90.25443 7914 ft 275 kts 303°
2026-05-03 21:44 30.07524 -90.27318 8792 ft 276 kts 303°
2026-05-03 21:45 30.08547 -90.29206 9688 ft 278 kts 303°
2026-05-03 21:45 30.09584 -90.31115 10349 ft 289 kts 303°
2026-05-03 21:45 30.10698 -90.33156 10596 ft 312 kts 303°
2026-05-03 21:45 30.11898 -90.35353 10801 ft 335 kts 303°
2026-05-03 21:46 30.13163 -90.37675 11267 ft 346 kts 302°
2026-05-03 21:46 30.14451 -90.40045 11955 ft 350 kts 302°
2026-05-03 21:46 30.15751 -90.42441 12678 ft 353 kts 302°
2026-05-03 21:46 30.17063 -90.44861 13370 ft 357 kts 302°
2026-05-03 21:47 30.18385 -90.47302 14060 ft 360 kts 302°
2026-05-03 21:47 30.19714 -90.49762 14696 ft 362 kts 302°
2026-05-03 21:47 30.21055 -90.52242 15328 ft 365 kts 302°
2026-05-03 21:47 30.22405 -90.54737 15969 ft 367 kts 302°
2026-05-03 21:48 30.23768 -90.57248 16614 ft 370 kts 302°
2026-05-03 21:48 30.25139 -90.59774 17236 ft 372 kts 302°
2026-05-03 21:48 30.26520 -90.62317 17867 ft 375 kts 302°
2026-05-03 21:48 30.27909 -90.64881 18491 ft 377 kts 302°
2026-05-03 21:49 30.29305 -90.67465 19044 ft 379 kts 302°
2026-05-03 21:49 30.30704 -90.70062 19618 ft 381 kts 302°
2026-05-03 21:49 30.32106 -90.72664 20197 ft 381 kts 301°
2026-05-03 21:49 30.33511 -90.75268 20762 ft 382 kts 301°
2026-05-03 21:50 30.34920 -90.77873 21307 ft 382 kts 302°
2026-05-03 21:50 30.36331 -90.80488 21842 ft 383 kts 302°
2026-05-03 21:50 30.37741 -90.83113 22364 ft 384 kts 301°
2026-05-03 21:50 30.39151 -90.85743 22874 ft 385 kts 301°
2026-05-03 21:51 30.40567 -90.88385 23325 ft 388 kts 302°
2026-05-03 21:51 30.42001 -90.91056 23656 ft 393 kts 302°
2026-05-03 21:51 30.43450 -90.93754 24012 ft 395 kts 302°
2026-05-03 21:51 30.44903 -90.96464 24375 ft 397 kts 302°
2026-05-03 21:52 30.46361 -90.99180 24740 ft 397 kts 302°
2026-05-03 21:52 30.47821 -91.01903 25114 ft 398 kts 302°
2026-05-03 21:52 30.49284 -91.04636 25470 ft 399 kts 301°
2026-05-03 21:52 30.50747 -91.07371 25831 ft 400 kts 301°
2026-05-03 21:53 30.52214 -91.10117 26181 ft 401 kts 301°
2026-05-03 21:53 30.53662 -91.12829 26516 ft 402 kts 301°
2026-05-03 21:53 30.55136 -91.15588 26836 ft 402 kts 301°
2026-05-03 21:53 30.56606 -91.18347 27191 ft 402 kts 301°
2026-05-03 21:54 30.58076 -91.21108 27509 ft 402 kts 301°
2026-05-03 21:54 30.59551 -91.23873 27810 ft 403 kts 301°
2026-05-03 21:54 30.61028 -91.26645 28109 ft 404 kts 301°
2026-05-03 21:54 30.62508 -91.29421 28381 ft 405 kts 301°
2026-05-03 21:55 30.63987 -91.32205 28627 ft 405 kts 301°
2026-05-03 21:55 30.65457 -91.34983 28992 ft 403 kts 301°
2026-05-03 21:55 30.66926 -91.37753 29385 ft 400 kts 301°
2026-05-03 21:55 30.68374 -91.40490 29868 ft 397 kts 301°
2026-05-03 21:56 30.69817 -91.43222 30113 ft 397 kts 301°
2026-05-03 21:56 30.71256 -91.45946 30157 ft 395 kts 301°
2026-05-03 21:56 30.74132 -91.51367 30155 ft 393 kts 301°
2026-05-03 21:57 30.77002 -91.56773 30156 ft 392 kts 301°
2026-05-03 21:57 30.79834 -91.62142 30161 ft 392 kts 301°
2026-05-03 21:58 30.82677 -91.67547 30165 ft 392 kts 301°
2026-05-03 21:58 30.85518 -91.72956 30165 ft 392 kts 301°
2026-05-03 21:59 30.88361 -91.78361 30169 ft 391 kts 301°
2026-05-03 21:59 30.91199 -91.83766 30169 ft 391 kts 301°
2026-05-03 22:00 30.94028 -91.89175 30169 ft 391 kts 301°
2026-05-03 22:00 30.96861 -91.94594 30140 ft 392 kts 302°
2026-05-03 22:01 30.99705 -92.00032 30137 ft 394 kts 302°
2026-05-03 22:01 31.02556 -92.05489 30138 ft 394 kts 301°
2026-05-03 22:02 31.05403 -92.10962 30140 ft 395 kts 301°
2026-05-03 22:02 31.08252 -92.16441 30142 ft 395 kts 301°
2026-05-03 22:03 31.11105 -92.21923 30146 ft 395 kts 301°
2026-05-03 22:03 31.13953 -92.27414 30148 ft 395 kts 301°
2026-05-03 22:04 31.16806 -92.32912 30128 ft 397 kts 301°
2026-05-03 22:04 31.19641 -92.38394 30129 ft 397 kts 301°
2026-05-03 22:05 31.22486 -92.43914 30155 ft 397 kts 302°
2026-05-03 22:05 31.25326 -92.49458 30120 ft 398 kts 299°
2026-05-03 22:06 31.27505 -92.55427 30113 ft 400 kts 293°
2026-05-03 22:06 31.29568 -92.61479 30112 ft 401 kts 293°
2026-05-03 22:07 31.31632 -92.67539 30089 ft 401 kts 293°
2026-05-03 22:07 31.33700 -92.73603 30121 ft 402 kts 293°
2026-05-03 22:08 31.35764 -92.79676 30143 ft 401 kts 293°
2026-05-03 22:08 31.37820 -92.85745 30172 ft 401 kts 293°
2026-05-03 22:09 31.39880 -92.91814 30151 ft 401 kts 293°
2026-05-03 22:10 31.42949 -93.00920 30152 ft 401 kts 293°
2026-05-03 22:10 31.44990 -93.06995 30139 ft 400 kts 293°
2026-05-03 22:11 31.47028 -93.13060 30156 ft 400 kts 292°
2026-05-03 22:11 31.49063 -93.19128 30168 ft 400 kts 293°
2026-05-03 22:12 31.51104 -93.25209 30148 ft 401 kts 293°
2026-05-03 22:12 31.53146 -93.31310 30144 ft 402 kts 292°
2026-05-03 22:13 31.55187 -93.37419 30137 ft 403 kts 292°
2026-05-03 22:13 31.57223 -93.43546 30146 ft 403 kts 292°
2026-05-03 22:14 31.59260 -93.49674 30142 ft 403 kts 292°
2026-05-03 22:14 31.61241 -93.55835 30141 ft 404 kts 290°
2026-05-03 22:15 31.62880 -93.62147 30144 ft 405 kts 288°
2026-05-03 22:15 31.64389 -93.68516 30142 ft 405 kts 288°
2026-05-03 22:16 31.65930 -93.74869 30144 ft 405 kts 288°
2026-05-03 22:16 31.67523 -93.81206 30137 ft 405 kts 289°
2026-05-03 22:17 31.69127 -93.87523 30144 ft 404 kts 288°
2026-05-03 22:17 31.70699 -93.93799 30152 ft 403 kts 288°
2026-05-03 22:18 31.72280 -94.00156 30156 ft 403 kts 288°
2026-05-03 22:18 31.73851 -94.06466 30181 ft 403 kts 288°
2026-05-03 22:19 31.75408 -94.12751 30150 ft 404 kts 288°
2026-05-03 22:19 31.76978 -94.19099 30145 ft 405 kts 288°
2026-05-03 22:20 31.78545 -94.25449 30136 ft 404 kts 288°
2026-05-03 22:20 31.80112 -94.31784 30156 ft 403 kts 288°
2026-05-03 22:21 31.81671 -94.38116 30162 ft 403 kts 288°
2026-05-03 22:21 31.83221 -94.44443 30161 ft 403 kts 288°
2026-05-03 22:22 31.84502 -94.49705 30160 ft 403 kts 288°
2026-05-03 22:22 31.86043 -94.56033 30159 ft 402 kts 288°
2026-05-03 22:23 31.87579 -94.62356 30150 ft 402 kts 288°
2026-05-03 22:23 31.89120 -94.68665 30151 ft 401 kts 288°
2026-05-03 22:24 31.90653 -94.74971 30144 ft 401 kts 288°
2026-05-03 22:24 31.92175 -94.81277 30141 ft 400 kts 288°
2026-05-03 22:25 31.93698 -94.87583 30138 ft 400 kts 288°
2026-05-03 22:25 31.95216 -94.93879 30137 ft 400 kts 288°
2026-05-03 22:26 31.96732 -95.00178 30111 ft 399 kts 288°
2026-05-03 22:26 31.98233 -95.06465 30130 ft 399 kts 288°
2026-05-03 22:27 31.99733 -95.12769 30112 ft 400 kts 288°
2026-05-03 22:27 32.01235 -95.19082 30105 ft 400 kts 288°
2026-05-03 22:28 32.02749 -95.25396 30107 ft 401 kts 288°
2026-05-03 22:28 32.04249 -95.31717 30113 ft 401 kts 288°
2026-05-03 22:29 32.05744 -95.38038 30105 ft 400 kts 288°
2026-05-03 22:29 32.07240 -95.44342 30119 ft 399 kts 288°
2026-05-03 22:30 32.08723 -95.50637 30126 ft 398 kts 288°
2026-05-03 22:30 32.10201 -95.56932 30134 ft 398 kts 288°
2026-05-03 22:31 32.11675 -95.63226 30127 ft 398 kts 288°
2026-05-03 22:31 32.13152 -95.69517 30127 ft 398 kts 288°
2026-05-03 22:32 32.14618 -95.75805 30122 ft 398 kts 288°
2026-05-03 22:32 32.16082 -95.82096 30126 ft 397 kts 288°
2026-05-03 22:33 32.17534 -95.88371 30131 ft 396 kts 288°
2026-05-03 22:33 32.18984 -95.94645 30128 ft 396 kts 288°
2026-05-03 22:34 32.20442 -96.00918 30128 ft 396 kts 288°
2026-05-03 22:34 32.21887 -96.07161 30133 ft 397 kts 287°
2026-05-03 22:35 32.23345 -96.13482 29649 ft 392 kts 287°
2026-05-03 22:35 32.24053 -96.16562 28718 ft 384 kts 287°
2026-05-03 22:35 32.24736 -96.19550 27500 ft 380 kts 287°
2026-05-03 22:35 32.25420 -96.22550 26307 ft 377 kts 287°
2026-05-03 22:36 32.26096 -96.25525 25189 ft 374 kts 287°
2026-05-03 22:36 32.26770 -96.28477 24095 ft 372 kts 287°
2026-05-03 22:36 32.27700 -96.31330 23333 ft 372 kts 297°
2026-05-03 22:36 32.29080 -96.33903 22671 ft 370 kts 307°
2026-05-03 22:37 32.30829 -96.36127 22090 ft 369 kts 314°
2026-05-03 22:37 32.32671 -96.38243 21480 ft 369 kts 314°
2026-05-03 22:37 32.34505 -96.40359 20868 ft 369 kts 314°
2026-05-03 22:37 32.36342 -96.42476 20262 ft 369 kts 314°
2026-05-03 22:38 32.38181 -96.44592 19655 ft 369 kts 314°
2026-05-03 22:38 32.40026 -96.46712 19038 ft 370 kts 315°
2026-05-03 22:38 32.41876 -96.48835 18439 ft 372 kts 315°
2026-05-03 22:38 32.43722 -96.50957 17885 ft 369 kts 315°
2026-05-03 22:39 32.45564 -96.53077 17396 ft 366 kts 314°
2026-05-03 22:39 32.47354 -96.55140 17265 ft 352 kts 314°
2026-05-03 22:39 32.49081 -96.57132 17075 ft 342 kts 314°
2026-05-03 22:39 32.50774 -96.59072 16686 ft 336 kts 314°
2026-05-03 22:40 32.52442 -96.60980 16091 ft 330 kts 314°
2026-05-03 22:40 32.54094 -96.62875 15675 ft 331 kts 314°
2026-05-03 22:40 32.55748 -96.64777 15257 ft 331 kts 314°
2026-05-03 22:40 32.57402 -96.66674 14781 ft 332 kts 314°
2026-05-03 22:41 32.59075 -96.68572 14223 ft 331 kts 314°
2026-05-03 22:41 32.60744 -96.70451 13720 ft 328 kts 315°
2026-05-03 22:41 32.62359 -96.72262 13585 ft 312 kts 315°
2026-05-03 22:41 32.63901 -96.73989 13327 ft 298 kts 315°
2026-05-03 22:42 32.65389 -96.75661 12826 ft 291 kts 315°
2026-05-03 22:42 32.66844 -96.77301 12537 ft 288 kts 314°
2026-05-03 22:42 32.68292 -96.78939 12286 ft 288 kts 315°
2026-05-03 22:42 32.69740 -96.80583 12043 ft 286 kts 315°
2026-05-03 22:43 32.71172 -96.82210 11944 ft 282 kts 313°
2026-05-03 22:43 32.72603 -96.83838 12020 ft 287 kts 314°
2026-05-03 22:43 32.74043 -96.85478 12025 ft 287 kts 314°
2026-05-03 22:43 32.75484 -96.87118 12025 ft 286 kts 314°
2026-05-03 22:44 32.76887 -96.88717 12017 ft 272 kts 313°
2026-05-03 22:44 32.78251 -96.90194 12013 ft 260 kts 321°
2026-05-03 22:44 32.79830 -96.91173 11875 ft 255 kts 340°
2026-05-03 22:44 32.81554 -96.91499 11599 ft 256 kts 358°
2026-05-03 22:45 32.83335 -96.91475 11271 ft 256 kts 359°
2026-05-03 22:45 32.85110 -96.91457 10944 ft 253 kts 358°
2026-05-03 22:45 32.86870 -96.91445 10446 ft 253 kts 358°
2026-05-03 22:45 32.88623 -96.91434 9964 ft 251 kts 359°
2026-05-03 22:46 32.90362 -96.91423 9430 ft 249 kts 357°
2026-05-03 22:46 32.92101 -96.91412 8864 ft 250 kts 358°
2026-05-03 22:46 32.93833 -96.91399 8323 ft 249 kts 359°
2026-05-03 22:46 32.95570 -96.91388 7767 ft 250 kts 358°
2026-05-03 22:47 32.97301 -96.91379 7271 ft 248 kts 359°
2026-05-03 22:47 32.99023 -96.91370 6761 ft 247 kts 358°
2026-05-03 22:47 33.00740 -96.91358 6298 ft 246 kts 358°
2026-05-03 22:47 33.02452 -96.91343 5819 ft 246 kts 358°
2026-05-03 22:48 33.04165 -96.91331 5329 ft 246 kts 358°
2026-05-03 22:48 33.05867 -96.91332 4875 ft 243 kts 354°
2026-05-03 22:48 33.07464 -96.91837 4636 ft 232 kts 327°
2026-05-03 22:48 33.08672 -96.93010 4401 ft 219 kts 302°
2026-05-03 22:49 33.09334 -96.94580 4178 ft 208 kts 279°
2026-05-03 22:49 33.09415 -96.96241 3943 ft 196 kts 253°
2026-05-03 22:49 33.08807 -96.97606 3731 ft 184 kts 227°
2026-05-03 22:49 33.07935 -96.98718 3497 ft 183 kts 224°
2026-05-03 22:50 33.07025 -96.99766 3272 ft 181 kts 222°
2026-05-03 22:50 33.06121 -97.00810 3104 ft 180 kts 222°
2026-05-03 22:50 33.05199 -97.01818 3046 ft 179 kts 213°
2026-05-03 22:50 33.04070 -97.02431 2954 ft 177 kts 194°
2026-05-03 22:51 33.02860 -97.02542 2753 ft 173 kts 183°
2026-05-03 22:51 33.01707 -97.02544 2531 ft 158 kts 183°
2026-05-03 22:51 33.00657 -97.02548 2336 ft 145 kts 182°
2026-05-03 22:51 32.99672 -97.02553 2160 ft 137 kts 182°
2026-05-03 22:52 32.98734 -97.02559 1992 ft 136 kts 182°
2026-05-03 22:52 32.97779 -97.02564 1815 ft 136 kts 182°
2026-05-03 22:52 32.96857 -97.02569 1634 ft 135 kts 182°
2026-05-03 22:52 32.95929 -97.02574 1458 ft 133 kts 182°
2026-05-03 22:53 32.94994 -97.02579 1278 ft 136 kts 182°
2026-05-03 22:53 32.94050 -97.02584 1097 ft 135 kts 181°
2026-05-03 22:53 32.93107 -97.02589 935 ft 139 kts 181°
2026-05-03 22:53 32.92163 -97.02590 747 ft 133 kts 180°
2026-05-03 22:54 32.91247 -97.02600 579 ft 131 kts 180°
2026-05-03 22:54 32.90464 -97.02606 575 ft 90 kts 179°
2026-05-03 22:54 32.90012 -97.02607 573 ft 40 kts 180°
2026-05-03 22:54 32.89759 -97.02610 567 ft 30 kts 183°
2026-05-03 22:55 32.89575 -97.02677 569 ft 26 kts 211°
2026-05-03 22:55 32.89425 -97.02782 571 ft 23 kts 208°
2026-05-03 22:55 32.89332 -97.02806 571 ft 21 kts 180°
2026-05-03 22:55 32.89182 -97.02806 577 ft 22 kts 180°
2026-05-03 22:56 32.89085 -97.02807 574 ft 26 kts 180°
2026-05-03 22:56 32.88896 -97.02808 574 ft 26 kts 180°
2026-05-03 22:56 32.88720 -97.02809 575 ft 25 kts 180°
2026-05-03 22:56 32.88541 -97.02810 571 ft 26 kts 180°
2026-05-03 22:57 32.88361 -97.02810 572 ft 26 kts 180°
2026-05-03 22:57 32.88178 -97.02811 573 ft 27 kts 180°
2026-05-03 22:57 32.87997 -97.02812 571 ft 25 kts 180°
2026-05-03 22:57 32.87827 -97.02820 573 ft 25 kts 185°
2026-05-03 22:58 32.87658 -97.02838 572 ft 24 kts 185°
2026-05-03 22:58 32.87492 -97.02856 571 ft 25 kts 185°
2026-05-03 22:58 32.87322 -97.02874 569 ft 22 kts 185°
2026-05-03 22:58 32.87182 -97.02909 569 ft 19 kts 224°
2026-05-03 22:59 32.87161 -97.03070 567 ft 22 kts 270°
2026-05-03 22:59 32.87164 -97.03256 567 ft 22 kts 281°
2026-05-03 22:59 32.87287 -97.03325 571 ft 21 kts 356°
2026-05-03 22:59 32.87420 -97.03337 570 ft 22 kts 356°
2026-05-03 23:00 32.87604 -97.03352 571 ft 28 kts 355°
2026-05-03 23:00 32.87795 -97.03369 572 ft 27 kts 355°
2026-05-03 23:00 32.87973 -97.03377 575 ft 26 kts
2026-05-03 23:00 32.88154 -97.03375 576 ft 26 kts
2026-05-03 23:01 32.88342 -97.03375 576 ft 28 kts
2026-05-03 23:01 32.88478 -97.03383 577 ft 15 kts 334°
2026-05-03 23:01 32.88538 -97.03478 581 ft 15 kts 319°
2026-05-03 23:01 32.88601 -97.03583 584 ft 18 kts 282°
2026-05-03 23:02 32.88605 -97.03746 589 ft 21 kts 272°
2026-05-03 23:02 32.88605 -97.03904 601 ft 20 kts 271°
2026-05-03 23:02 32.88605 -97.03925 601 ft 21 kts 271°
2026-05-03 23:02 32.88605 -97.04131 601 ft 27 kts 270°
2026-05-03 23:03 32.88605 -97.04352 597 ft 25 kts 270°
2026-05-03 23:03 32.88606 -97.04553 591 ft 26 kts 270°
2026-05-03 23:03 32.88612 -97.04739 587 ft 16 kts 292°
2026-05-03 23:03 32.88721 -97.04769 590 ft 19 kts
2026-05-03 23:04 32.88871 -97.04768 591 ft 24 kts 359°
2026-05-03 23:04 32.89055 -97.04767 591 ft 27 kts
2026-05-03 23:04 32.89238 -97.04766 595 ft 27 kts
2026-05-03 23:04 32.89431 -97.04765 595 ft 28 kts 360°
2026-05-03 23:05 32.89629 -97.04764 598 ft 28 kts
2026-05-03 23:05 32.89820 -97.04764 597 ft 28 kts
2026-05-03 23:05 32.89984 -97.04761 599 ft 13 kts 14°
2026-05-03 23:05 32.90057 -97.04690 598 ft 15 kts 40°
2026-05-03 23:06 32.90081 -97.04578 598 ft 15 kts 85°
2026-05-03 23:06 32.90080 -97.04447 598 ft 17 kts 90°
2026-05-03 23:06 32.90075 -97.04348 598 ft 10 kts 104°
2026-05-03 23:06 32.90056 -97.04300 599 ft 4 kts 149°
2026-05-03 23:07 32.90025 -97.04306 599 ft 5 kts 188°
2026-05-03 23:07 32.90005 -97.04309 599 ft 0 kts 188°
2026-05-03 23:07 32.90000 -97.04310 599 ft 1 kts 188°
2026-05-03 23:07 32.89996 -97.04311 599 ft 1 kts 188°
2026-05-03 23:08 32.89992 -97.04312 599 ft 0 kts 188°
2026-05-03 23:08 32.89989 -97.04312 599 ft 0 kts 188°
2026-05-03 23:08 32.89986 -97.04312 599 ft 0 kts 187°